FW4267 Weather Reports


time (UTC)temp
F
wind
direction
speed
knots
gust
knots
rain 1hr
in
rain 24hr
in
rain mn
in
humidity
%
barometer
mb
20260506114830 62 298 0.9 4.3 0.00 0.31 0.01 68 1011.0
20260506114330 63 286 0.9 5.2 0.00 0.31 0.01 66 1011.0
20260506113829 64 4 0.0 5.2 0.00 0.31 0.01 64 1011.1
20260506113636 65 321 0.0 3.5 0.00 0.31 0.01 64 1011.0
20260506112828 64 324 1.7 3.5 0.00 0.31 0.01 66 1011.1
20260506112328 63 128 0.9 3.5 0.00 0.31 0.01 70 1011.1
20260506111828 62 71 0.9 3.5 0.00 0.31 0.01 69 1011.2
20260506111329 62 63 1.7 5.2 0.00 0.31 0.01 68 1011.1
20260506110830 61 340 0.0 5.2 0.00 0.31 0.01 71 1011.2
20260506110327 61 299 0.9 4.3 0.00 0.31 0.01 70 1011.3
20260506105829 60 305 0.9 4.3 0.00 0.31 0.01 74 1011.4
20260506105329 59 296 0.0 1.7 0.00 0.31 0.01 74 1011.4
20260506104829 59 300 0.9 3.5 0.00 0.31 0.01 71 1011.5
20260506104328 59 316 0.9 3.5 0.00 0.31 0.01 69 1011.6
20260506103827 60 302 0.0 4.3 0.00 0.31 0.01 71 1011.6
20260506103635 60 292 0.0 5.2 0.00 0.31 0.01 69 1011.6
20260506103136 61 323 1.7 5.2 0.00 0.31 0.01 67 1011.6
20260506102639 61 80 0.9 5.2 0.00 0.31 0.01 70 1011.5
20260506101829 61 309 0.9 5.2 0.00 0.31 0.01 71 1011.5
20260506101634 60 285 0.9 5.2 0.00 0.31 0.01 69 1011.5
20260506100828 61 272 1.7 3.5 0.00 0.31 0.01 68 1011.5
20260506100329 62 264 0.9 3.5 0.00 0.31 0.01 70 1011.6
20260506095826 61 61 0.9 3.5 0.00 0.31 0.01 72 1011.5
20260506095326 60 63 0.0 6.1 0.00 0.31 0.01 73 1011.5
20260506094826 60 306 2.6 6.1 0.00 0.31 0.01 70 1011.5
20260506094327 60 312 0.9 4.3 0.00 0.31 0.01 71 1011.6
20260506093827 60 319 0.9 5.2 0.00 0.31 0.01 72 1011.4
20260506093326 61 266 2.6 5.2 0.00 0.31 0.01 70 1011.5
20260506092829 61 305 0.9 3.5 0.00 0.31 0.01 71 1011.4
20260506092327 60 52 0.9 4.3 0.00 0.31 0.01 75 1011.5
20260506091829 60 111 1.7 6.1 0.00 0.31 0.01 74 1011.4
20260506091326 59 258 1.7 6.1 0.00 0.31 0.01 74 1011.4
20260506090825 59 296 1.7 7.8 0.00 0.31 0.01 74 1011.3
20260506090326 58 330 2.6 7.8 0.00 0.31 0.01 74 1011.3
20260506085825 58 313 1.7 6.1 0.00 0.31 0.01 77 1011.3
20260506085326 57 329 1.7 5.2 0.00 0.31 0.01 78 1011.3
20260506084824 56 303 0.9 6.1 0.00 0.31 0.01 78 1011.3
20260506084328 56 313 1.7 9.6 0.00 0.31 0.01 79 1011.2
20260506083824 56 289 2.6 9.6 0.00 0.31 0.01 78 1011.2
20260506083324 56 300 0.0 5.2 0.00 0.31 0.01 80 1011.3
20260506082824 56 258 1.7 6.1 0.00 0.31 0.01 77 1011.2
20260506082324 56 329 2.6 6.1 0.00 0.31 0.01 76 1011.3
20260506081824 57 307 2.6 6.1 0.00 0.31 0.01 77 1011.2
20260506081324 57 302 0.9 3.5 0.00 0.31 0.01 80 1011.3
20260506080826 56 307 0.0 4.3 0.00 0.31 0.01 85 1011.3
20260506080324 55 314 0.0 4.3 0.00 0.31 0.01 84 1011.3
20260506073326 54 290 1.7 5.2 0.00 0.31 0.01 86 1011.4
20260506072825 54 286 0.9 4.3 0.00 0.31 0.01 89 1011.3
20260506072324 53 288 1.7 4.3 0.00 0.31 0.01 89 1011.5
20260506071823 53 264 0.9 4.3 0.00 0.31 0.01 91 1011.3
20260506071324 53 255 1.7 3.5 0.00 0.31 0.01 93 1011.3
20260506070823 52 295 0.9 3.5 0.00 0.31 0.01 94 1011.2
20260506070323 53 319 0.0 2.6 0.00 0.31 0.01 96 1011.3
20260506062324 51 147 0.0 0.9 0.00 0.31 0.01 98 1011.4
20260506061822 50 147 0.0 0.9 0.00 0.31 0.01 98 1011.3
20260506061322 49 73 0.0 0.9 0.00 0.31 0.01 98 1011.3
20260506060947 47 34 0.0 0.0 0.00 0.31 0.01 98 1011.4
20260506060919 47 34 0.0 0.9 0.00 0.31 0.01 98 1011.3
20260506051321 45 323 0.0 0.0 0.00 0.31 0.01 97 1010.9
20260506050821 45 324 0.0 0.0 0.00 0.31 0.01 97 1010.8
20260506050320 45 323 0.0 0.0 0.00 0.31 0.01 97 1010.8
20260506044819 45 300 0.0 0.0 0.00 0.31 0.01 97 1010.9
20260506044320 45 300 0.0 0.0 0.00 0.31 0.01 97 1010.9
20260506044128 46 300 0.0 0.0 0.00 0.31 0.01 97 1010.9
20260506043631 46 300 0.0 0.0 0.00 0.31 0.01 97 1010.9
20260506042819 46 300 0.0 0.0 0.00 0.31 0.01 97 1010.9
20260506042320 46 300 0.0 0.0 0.00 0.31 0.01 97 1010.8
20260506041832 46 300 0.0 0.0 0.00 0.31 0.01 97 1010.9
20260506041319 46 300 0.0 0.0 0.00 0.31 0.01 97 1010.8
20260506040820 46 300 0.0 0.0 0.01 0.31 0.01 97 1010.8
20260506040319 46 300 0.0 0.0 0.01 0.31 0.01 98 1010.9
20260506035820 46 300 0.0 0.0 0.01 0.31 0.01 98 1010.8
20260506035318 46 300 0.0 0.0 0.01 0.31 0.01 98 1010.8
20260506034820 45 300 0.0 0.0 0.01 0.31 0.01 97 1010.9
20260506034318 45 300 0.0 0.0 0.01 0.31 0.01 97 1010.8
20260506033820 45 300 0.0 0.0 0.01 0.31 0.01 97 1010.9
20260506033318 45 300 0.0 0.9 0.01 0.31 0.01 98 1010.9
20260506032816 45 300 0.0 0.9 0.01 0.31 0.01 98 1010.9
20260506032317 45 300 0.0 0.9 0.01 0.31 0.01 98 1010.9
20260506031817 45 87 0.0 0.0 0.01 0.31 0.01 97 1010.8
20260506031507 45 89 0.0 0.0 0.00 0.31 0.00 97 1010.8
20260506031432 45 87 0.0 0.0 0.01 0.31 0.01 97 1010.9
20260506030318 45 87 0.0 0.0 0.00 0.31 0.00 97 1010.9
20260506025818 45 89 0.0 0.0 0.00 0.31 0.00 97 1010.9
20260506025316 45 87 0.0 0.0 0.00 0.31 0.00 97 1010.9
20260506024816 45 87 0.0 0.0 0.00 0.31 0.00 97 1010.9
20260506024316 45 87 0.0 0.0 0.00 0.31 0.00 97 1011.0
20260506023817 45 87 0.0 0.0 0.00 0.31 0.00 97 1010.9
20260506023622 45 87 0.0 0.0 0.00 0.31 0.00 97 1011.0
20260506022817 45 87 0.0 0.0 0.00 0.31 0.00 97 1011.0
20260506022329 45 87 0.0 0.0 0.00 0.31 0.00 97 1010.9
20260506021818 45 89 0.0 0.0 0.00 0.31 0.00 97 1010.9
20260506021316 45 87 0.0 0.0 0.00 0.31 0.00 97 1010.9
20260506021122 46 87 0.0 0.0 0.00 0.31 0.00 97 1010.8
20260506020315 46 87 0.0 0.0 0.00 0.31 0.00 97 1010.8
20260506015816 46 87 0.0 0.0 0.00 0.31 0.00 97 1010.8
20260506015315 46 89 0.0 0.0 0.00 0.31 0.00 97 1010.8
20260506014814 46 87 0.0 0.0 0.00 0.31 0.00 97 1010.9
20260506014317 46 87 0.0 0.0 0.00 0.31 0.00 97 1010.9
20260506013815 46 87 0.0 0.0 0.00 0.31 0.00 97 1010.8
20260506013316 46 87 0.0 0.0 0.00 0.31 0.00 97 1010.9
20260506012815 46 87 0.0 0.0 0.00 0.31 0.00 97 1010.9
20260506012315 46 87 0.0 0.0 0.00 0.31 0.00 97 1010.9
20260506011815 46 87 0.0 0.0 0.00 0.31 0.00 97 1010.9
20260506011314 46 87 0.0 0.0 0.00 0.31 0.00 97 1010.9
20260506010828 46 87 0.0 0.0 0.00 0.31 0.00 97 1011.0
20260506010316 46 87 0.0 0.0 0.00 0.31 0.00 97 1011.0
20260506005816 46 87 0.0 0.0 0.00 0.31 0.00 97 1011.1
20260506005619 46 87 0.0 0.0 0.00 0.31 0.00 97 1011.2
20260506004815 47 89 0.0 0.0 0.00 0.31 0.00 97 1011.2
20260506004623 47 87 0.0 0.0 0.00 0.31 0.00 97 1011.3
20260506003817 47 87 0.0 0.0 0.00 0.31 0.00 97 1011.2
20260506003314 47 87 0.0 0.0 0.00 0.31 0.00 97 1011.2
20260506002813 48 87 0.0 0.9 0.00 0.31 0.00 97 1011.2
20260506002313 48 87 0.0 0.9 0.00 0.31 0.00 97 1011.3
20260506001813 48 87 0.0 0.9 0.00 0.31 0.00 97 1011.3
20260506001316 48 94 0.0 0.0 0.00 0.31 0.00 97 1011.3
20260506000814 48 94 0.0 0.0 0.00 0.31 0.00 97 1011.5
20260506000314 48 94 0.0 0.0 0.00 0.31 0.00 97 1011.6
20260505235814 48 94 0.0 0.9 0.00 0.31 0.00 97 1011.6
20260505235621 48 94 0.0 0.9 0.00 0.31 0.00 97 1011.8
20260505234814 49 94 0.0 0.0 0.00 0.31 0.00 97 1011.8
20260505234313 49 94 0.0 0.0 0.00 0.31 0.00 97 1011.9
20260505233813 49 94 0.0 0.0 0.00 0.31 0.00 97 1011.9
20260505233449 49 94 0.0 0.0 0.00 0.31 0.00 97 1012.0
20260505233414 49 94 0.0 0.0 0.00 0.31 0.00 97 1011.9
20260505232621 49 94 0.0 0.0 0.00 0.31 0.00 97 1011.9
20260505231813 49 94 0.0 0.0 0.00 0.31 0.00 97 1012.0
20260505231311 49 94 0.0 0.0 0.00 0.31 0.00 97 1012.0
20260505230811 49 94 0.0 0.0 0.00 0.31 0.00 97 1011.9
20260505230314 49 94 0.0 0.0 0.00 0.31 0.00 97 1012.0
20260505230121 49 94 0.0 0.0 0.00 0.31 0.00 97 1011.9
20260505225617 48 94 0.0 0.0 0.00 0.31 0.00 97 1012.0
20260505224811 48 94 0.0 0.0 0.00 0.31 0.00 97 1012.0
20260505224313 48 94 0.0 0.0 0.00 0.31 0.00 97 1012.1
20260505223958 48 94 0.0 0.0 0.00 0.31 0.00 97 1012.0
20260505223919 48 94 0.0 0.0 0.00 0.31 0.00 97 1012.1
20260505222811 48 94 0.0 0.0 0.00 0.31 0.00 97 1012.0
20260505222631 48 94 0.0 0.0 0.00 0.31 0.00 97 1012.1
20260505222625 48 94 0.0 0.0 0.00 0.31 0.00 97 1012.1
20260505222620 48 94 0.0 0.0 0.00 0.31 0.00 97 1012.2
20260505220813 48 94 0.0 0.0 0.00 0.31 0.00 97 1012.2
20260505220310 49 94 0.0 0.0 0.00 0.31 0.00 97 1012.2
20260505215812 49 94 0.0 0.0 0.00 0.31 0.31 97 1012.2
20260505215311 49 94 0.0 0.0 0.00 0.31 0.31 97 1012.3
20260505214809 49 94 0.0 0.0 0.00 0.31 0.31 97 1012.3
20260505214459 49 94 0.0 0.0 0.00 0.31 0.31 97 1012.3
20260505214418 49 94 0.0 0.0 0.00 0.31 0.31 97 1012.2
20260505213627 49 94 0.0 0.0 0.00 0.31 0.31 97 1012.3
20260505213129 49 94 0.0 0.0 0.00 0.31 0.31 97 1012.2
20260505212311 49 94 0.0 0.0 0.00 0.31 0.31 97 1012.3
20260505211810 49 94 0.0 0.0 0.00 0.31 0.31 97 1012.2
20260505211637 49 94 0.0 0.0 0.00 0.31 0.31 97 1012.3
20260505210810 49 94 0.0 0.0 0.00 0.31 0.31 97 1012.4
20260505210310 49 94 0.0 0.0 0.00 0.31 0.31 97 1012.2
20260505205811 49 94 0.0 0.0 0.00 0.31 0.31 97 1012.2
20260505205309 49 94 0.0 0.0 0.00 0.31 0.31 97 1012.2
20260505204811 49 94 0.0 0.0 0.00 0.31 0.31 97 1012.3
20260505204310 49 94 0.0 0.0 0.00 0.31 0.31 96 1012.2
20260505203813 49 94 0.0 0.0 0.00 0.31 0.31 96 1012.1
20260505203537 49 94 0.0 0.0 0.00 0.31 0.31 96 1012.0
20260505203441 49 94 0.0 0.0 0.00 0.31 0.31 96 1012.1
20260505202425 49 94 0.0 0.0 0.00 0.31 0.31 96 1012.0
20260505201312 49 94 0.0 0.0 0.00 0.31 0.31 96 1011.8
20260505200809 49 94 0.0 0.0 0.00 0.31 0.31 96 1011.8
20260505200448 50 94 0.0 0.0 0.00 0.31 0.31 96 1011.9
20260505200414 50 94 0.0 0.0 0.00 0.31 0.31 96 1011.9
20260505195309 50 94 0.0 0.0 0.00 0.31 0.31 96 1011.8
20260505194810 50 94 0.0 0.0 0.00 0.31 0.31 96 1011.9
20260505194314 50 94 0.0 0.0 0.00 0.31 0.31 96 1011.8
20260505193809 50 94 0.0 0.0 0.00 0.31 0.31 96 1011.8
20260505193310 50 94 0.0 0.0 0.00 0.31 0.31 96 1011.9
20260505192808 50 94 0.0 0.9 0.00 0.31 0.31 96 1011.9
20260505192306 50 94 0.0 0.9 0.00 0.31 0.31 96 1011.8
20260505192008 50 94 0.0 0.0 0.00 0.31 0.31 96 1011.6
20260505191921 50 94 0.0 0.9 0.00 0.31 0.31 96 1011.8
20260505190809 51 94 0.0 0.0 0.00 0.31 0.31 95 1011.6
20260505190308 51 94 0.0 0.0 0.00 0.32 0.31 95 1011.6
20260505190134 51 94 0.0 0.0 0.00 0.33 0.31 95 1011.4
20260505185306 51 94 0.0 0.0 0.00 0.34 0.31 95 1011.4
20260505184806 51 94 0.0 0.0 0.00 0.34 0.31 95 1011.3
20260505184454 52 94 0.0 0.0 0.00 0.35 0.31 95 1011.3
20260505184416 51 94 0.0 0.0 0.00 0.35 0.31 95 1011.3
20260505183307 52 94 0.0 0.0 0.00 0.35 0.31 95 1011.3
20260505183121 53 94 0.0 0.0 0.00 0.36 0.31 95 1011.3
20260505182452 53 94 0.0 0.0 0.00 0.37 0.31 95 1011.4
20260505182414 53 94 0.0 0.0 0.00 0.37 0.31 95 1011.3
20260505181456 54 94 0.0 0.0 0.00 0.38 0.31 95 1011.2
20260505181414 53 94 0.0 0.0 0.00 0.38 0.31 95 1011.4
20260505180304 54 94 0.0 0.0 0.00 0.39 0.31 95 1011.2
20260505175807 54 94 0.0 0.0 0.00 0.39 0.31 95 1011.2
20260505175305 54 94 0.0 0.0 0.00 0.40 0.31 95 1011.2
20260505174807 55 94 0.0 0.9 0.00 0.42 0.31 95 1011.2
20260505174304 55 94 0.0 0.9 0.00 0.43 0.31 95 1011.2
20260505174120 55 116 0.0 0.9 0.00 0.46 0.31 96 1011.2
20260505173304 55 116 0.0 0.9 0.00 0.47 0.31 96 1011.3
20260505172803 55 116 0.0 0.9 0.00 0.49 0.31 96 1011.3
20260505172306 55 116 0.0 0.9 0.01 0.50 0.31 96 1011.2
20260505171804 55 116 0.0 0.9 0.02 0.52 0.31 96 1011.3
20260505171305 55 104 0.0 0.9 0.02 0.55 0.31 96 1011.4
20260505170804 54 104 0.0 0.9 0.02 0.62 0.31 96 1011.5
20260505170304 54 104 0.0 0.9 0.03 0.69 0.31 96 1011.5
20260505165804 54 104 0.0 0.9 0.03 0.80 0.31 95 1011.5
20260505165455 54 110 0.0 0.0 0.04 0.85 0.31 95 1011.5
20260505165417 54 104 0.0 0.9 0.04 0.84 0.31 95 1011.4
20260505164303 53 110 0.0 0.9 0.04 0.85 0.31 95 1011.6
20260505163804 53 110 0.0 0.9 0.05 0.85 0.31 95 1011.6
20260505163303 53 80 0.0 0.9 0.06 0.85 0.31 95 1011.6
20260505162805 53 80 0.0 0.9 0.07 0.85 0.31 95 1011.8
20260505162302 53 80 0.0 0.9 0.07 0.84 0.30 95 1011.6
20260505161805 53 78 0.0 0.9 0.07 0.83 0.29 95 1011.5
20260505161302 53 78 0.0 0.9 0.08 0.83 0.29 95 1011.8
20260505161120 52 298 0.0 0.0 0.07 0.83 0.28 95 1011.8
20260505160303 52 298 0.0 0.0 0.07 0.82 0.28 95 1011.9
20260505153302 52 303 0.9 2.6 0.14 0.81 0.25 93 1011.8
20260505152802 52 289 0.9 1.7 0.16 0.80 0.24 93 1011.8
20260505152304 53 290 0.0 1.7 0.18 0.80 0.23 93 1011.9
20260505151800 53 312 0.0 0.9 0.20 0.79 0.22 93 1011.9
20260505151302 53 82 0.0 1.7 0.20 0.78 0.21 93 1012.0
20260505150802 53 83 0.0 2.6 0.20 0.78 0.21 93 1012.0
20260505150300 53 58 0.0 2.6 0.20 0.77 0.20 93 1012.0
20260505130258 64 302 1.7 4.3 0.00 1.43 0.01 62 1010.3
20260505124758 64 285 0.9 5.2 0.00 1.43 0.01 65 1010.4
20260505124258 64 329 1.7 5.2 0.00 1.43 0.01 64 1010.4
20260505123757 64 226 1.7 4.3 0.00 1.43 0.01 68 1010.5
20260505123258 64 303 0.9 3.5 0.00 1.43 0.01 64 1010.5
20260505122757 64 66 0.9 3.5 0.00 1.43 0.01 71 1010.6
20260505122256 64 298 0.9 2.6 0.00 1.43 0.01 71 1010.7
20260505121915 64 306 1.7 4.3 0.00 1.43 0.01 67 1010.8
20260505121848 63 307 0.0 4.3 0.00 1.43 0.01 71 1010.7
20260505120758 64 345 0.0 1.7 0.00 1.43 0.01 70 1010.7
20260505120256 64 93 0.0 2.6 0.00 1.43 0.01 70 1010.7
20260505115757 63 292 0.0 3.5 0.00 1.43 0.01 69 1010.8
20260505115255 62 303 0.9 4.3 0.00 1.43 0.01 77 1010.9